Zurück zum Katalog

ONEWEB-0643

AktivKommunikationPO
NORAD 55807·PAYLOAD·🇬🇧 United Kingdom

Gestartet Mar 9, 2023 von Cape Canaveral Space Force Station

Loading…

Nächste Überflüge (nächste 24 Stunden)

TLE

AktuellSource: CelesTrak SupGP

Epoche: Sep 14, 2026, 15:09 UTC

1 55807C 23029M   26257.63140463 -.00001274  00000+0 -34416-2 0  2572
2 55807  87.8882 271.8841 0001610  73.6595 158.0143 13.14501667    19

Verfolge ONEWEB-0643 in Echtzeit mit AllMySat

Download on the App Store